Zurück zum Katalog

PEGASUS DEB

LostPO
NORAD 27755·DEBRIS·🇺🇸 United States

Gestartet May 19, 1994 von Vandenberg Space Force Base

Loading…

Nächste Überflüge (nächste 24 Stunden)

TLE

VeraltetSource: Space-Track

Epoche: Oct 28, 2005, 12:03 UTC

1 27755U 94029AEK 05301.50218394  .00000708  00000-0  38671-3 0  9994
2 27755  81.8188 133.1962 0861058  33.6818 331.6603 12.99182376142618

Verfolge PEGASUS DEB in Echtzeit mit AllMySat

Download on the App Store